TimePDT,TemperatureF,Dew PointF,Humidity,Sea Level PressureIn,VisibilityMPH,Wind Direction,Wind SpeedMPH,Gust SpeedMPH,PrecipitationIn,Events,Conditions,WindDirDegrees,DateUTC
12:53 AM,81.0,51.1,35,29.80,10.0,SE,4.6,-,N/A,,Clear,140,2013-08-03 07:53:00
1:53 AM,80.1,51.1,36,29.79,10.0,Calm,Calm,-,N/A,,Clear,0,2013-08-03 08:53:00
2:53 AM,78.1,52.0,40,29.79,10.0,Calm,Calm,-,N/A,,Clear,0,2013-08-03 09:53:00
3:53 AM,75.9,54.0,46,29.79,10.0,Calm,Calm,-,N/A,,Clear,0,2013-08-03 10:53:00
4:53 AM,75.9,54.0,46,29.80,10.0,SSE,3.5,-,N/A,,Clear,160,2013-08-03 11:53:00
5:53 AM,75.0,54.0,48,29.82,10.0,Calm,Calm,-,N/A,,Scattered Clouds,0,2013-08-03 12:53:00
6:53 AM,73.9,57.9,57,29.85,10.0,Calm,Calm,-,N/A,,Clear,0,2013-08-03 13:53:00
7:53 AM,81.0,52.0,36,29.87,10.0,SE,3.5,-,N/A,,Clear,140,2013-08-03 14:53:00
8:53 AM,84.9,50.0,30,29.88,10.0,SE,4.6,-,N/A,,Scattered Clouds,140,2013-08-03 15:53:00
9:53 AM,90.0,46.0,22,29.87,10.0,Calm,Calm,-,N/A,,Partly Cloudy,0,2013-08-03 16:53:00
10:53 AM,95.0,39.0,14,29.87,10.0,ESE,6.9,-,N/A,,Partly Cloudy,120,2013-08-03 17:53:00
11:53 AM,97.0,34.0,11,29.86,10.0,Variable,3.5,-,N/A,,Clear,0,2013-08-03 18:53:00
12:53 PM,100.0,37.0,11,29.85,10.0,NE,5.8,-,N/A,,Scattered Clouds,50,2013-08-03 19:53:00
1:53 PM,100.0,30.9,9,29.84,10.0,Calm,Calm,-,N/A,,Mostly Cloudy,0,2013-08-03 20:53:00
2:53 PM,102.9,26.1,7,29.81,10.0,ENE,5.8,-,N/A,,Scattered Clouds,60,2013-08-03 21:53:00
3:53 PM,105.1,25.0,6,29.79,10.0,East,6.9,-,N/A,,Clear,90,2013-08-03 22:53:00
4:53 PM,104.0,34.0,9,29.77,10.0,NNW,9.2,-,N/A,,Scattered Clouds,340,2013-08-03 23:53:00
5:53 PM,102.9,39.0,11,29.76,10.0,NW,12.7,-,N/A,,Clear,320,2013-08-04 00:53:00
6:53 PM,99.0,46.9,17,29.76,10.0,NW,16.1,-,N/A,,Clear,320,2013-08-04 01:53:00
7:53 PM,96.1,48.9,20,29.77,10.0,NW,15.0,21.9,N/A,,Clear,320,2013-08-04 02:53:00
8:53 PM,91.9,51.1,25,29.78,10.0,NW,13.8,-,N/A,,Clear,310,2013-08-04 03:53:00
9:53 PM,90.0,51.1,26,29.81,10.0,NW,15.0,-,N/A,,Clear,320,2013-08-04 04:53:00
10:53 PM,87.1,52.0,30,29.82,10.0,WNW,5.8,-,N/A,,Clear,300,2013-08-04 05:53:00
11:53 PM,86.0,52.0,31,29.82,10.0,West,4.6,-,N/A,,Clear,270,2013-08-04 06:53:00